Year,Month,Day,Hour,Minute,Value (Times are PST for temperature in C)
2012,06,05,00,00,9.20
2012,06,05,00,01,9.20
2012,06,05,00,02,9.20
2012,06,05,00,03,9.20
2012,06,05,00,04,9.20
2012,06,05,00,05,9.20
2012,06,05,00,06,9.10
2012,06,05,00,07,9.10
2012,06,05,00,08,9.10
2012,06,05,00,09,9.10
2012,06,05,00,10,9.10
2012,06,05,00,11,9.10
2012,06,05,00,12,9.10
2012,06,05,00,13,9.10
2012,06,05,00,14,9.10
2012,06,05,00,15,9.10
2012,06,05,00,16,9.10
2012,06,05,00,17,9.00
2012,06,05,00,18,9.00
2012,06,05,00,19,9.00
2012,06,05,00,20,9.00
2012,06,05,00,21,9.00
2012,06,05,00,22,8.90
2012,06,05,00,23,8.90
2012,06,05,00,24,8.90
2012,06,05,00,25,8.90
2012,06,05,00,26,8.90
2012,06,05,00,27,8.90
2012,06,05,00,28,8.90
2012,06,05,00,29,8.90
2012,06,05,00,30,8.80
2012,06,05,00,31,8.80
2012,06,05,00,32,8.80
2012,06,05,00,33,8.80
2012,06,05,00,34,8.80
2012,06,05,00,35,8.80
2012,06,05,00,36,8.80
2012,06,05,00,37,8.80
2012,06,05,00,38,8.80
2012,06,05,00,39,8.80
2012,06,05,00,40,8.80
2012,06,05,00,41,8.70
2012,06,05,00,42,8.70
2012,06,05,00,43,8.70
2012,06,05,00,44,8.70
2012,06,05,00,45,8.70
2012,06,05,00,46,8.70
2012,06,05,00,47,8.70
2012,06,05,00,48,8.70
2012,06,05,00,49,8.70
2012,06,05,00,50,8.70
2012,06,05,00,51,8.70
2012,06,05,00,52,8.70
2012,06,05,00,53,8.70
2012,06,05,00,54,8.60
2012,06,05,00,55,8.60
2012,06,05,00,56,8.60
2012,06,05,00,57,8.60
2012,06,05,00,58,8.60
2012,06,05,00,59,8.60
2012,06,05,01,00,8.60
2012,06,05,01,01,8.60
2012,06,05,01,02,8.50
2012,06,05,01,03,8.50
2012,06,05,01,04,8.50
2012,06,05,01,05,8.50
2012,06,05,01,06,8.50
2012,06,05,01,07,8.50
2012,06,05,01,08,8.50
2012,06,05,01,09,8.50
2012,06,05,01,10,8.50
2012,06,05,01,11,8.50
2012,06,05,01,12,8.50
2012,06,05,01,13,8.50
2012,06,05,01,14,8.40
2012,06,05,01,15,8.40
2012,06,05,01,16,8.40
2012,06,05,01,17,8.40
2012,06,05,01,18,8.40
2012,06,05,01,19,8.40
2012,06,05,01,20,8.40
2012,06,05,01,21,8.40
2012,06,05,01,22,8.40
2012,06,05,01,23,8.40
2012,06,05,01,24,8.40
2012,06,05,01,25,8.50
2012,06,05,01,26,8.50
2012,06,05,01,27,8.50
2012,06,05,01,28,8.50
2012,06,05,01,29,8.60
2012,06,05,01,30,8.60
2012,06,05,01,31,8.60
2012,06,05,01,32,8.60
2012,06,05,01,33,8.60
2012,06,05,01,34,8.60
2012,06,05,01,35,8.60
2012,06,05,01,36,8.70
2012,06,05,01,37,8.70
2012,06,05,01,38,8.70
2012,06,05,01,39,8.70
2012,06,05,01,40,8.70
2012,06,05,01,41,8.70
2012,06,05,01,42,8.70
2012,06,05,01,43,8.70
2012,06,05,01,44,8.70
2012,06,05,01,45,8.70
2012,06,05,01,46,8.70
2012,06,05,01,47,8.70
2012,06,05,01,48,8.70
2012,06,05,01,49,8.70
2012,06,05,01,50,8.70
2012,06,05,01,51,8.70
2012,06,05,01,52,8.70
2012,06,05,01,53,8.70
2012,06,05,01,54,8.70
2012,06,05,01,55,8.70
2012,06,05,01,56,8.70
2012,06,05,01,57,8.70
2012,06,05,01,58,8.70
2012,06,05,01,59,8.70
2012,06,05,02,00,8.80
2012,06,05,02,01,8.80
2012,06,05,02,02,8.80
2012,06,05,02,03,8.80
2012,06,05,02,04,8.80
2012,06,05,02,05,8.80
2012,06,05,02,06,8.80
2012,06,05,02,07,8.80
2012,06,05,02,08,8.90
2012,06,05,02,09,8.90
2012,06,05,02,10,8.90
2012,06,05,02,11,8.90
2012,06,05,02,12,8.90
2012,06,05,02,13,8.90
2012,06,05,02,14,9.00
2012,06,05,02,15,9.00
2012,06,05,02,16,9.00
2012,06,05,02,17,9.00
2012,06,05,02,18,9.10
2012,06,05,02,19,9.10
2012,06,05,02,20,9.10
2012,06,05,02,21,9.10
2012,06,05,02,22,9.20
2012,06,05,02,23,9.20
2012,06,05,02,24,9.20
2012,06,05,02,25,9.20
2012,06,05,02,26,9.20
2012,06,05,02,27,9.30
2012,06,05,02,28,9.30
2012,06,05,02,29,9.30
2012,06,05,02,30,9.30
2012,06,05,02,31,9.30
2012,06,05,02,32,9.30
2012,06,05,02,33,9.30
2012,06,05,02,34,9.30
2012,06,05,02,35,9.30
2012,06,05,02,36,9.40
2012,06,05,02,37,9.40
2012,06,05,02,38,9.40
2012,06,05,02,39,9.40
2012,06,05,02,40,9.40
2012,06,05,02,41,9.40
2012,06,05,02,42,9.40
2012,06,05,02,43,9.40
2012,06,05,02,44,9.40
2012,06,05,02,45,9.40
2012,06,05,02,46,9.40
2012,06,05,02,47,9.40
2012,06,05,02,48,9.40
2012,06,05,02,49,9.40
2012,06,05,02,50,9.40
2012,06,05,02,51,9.40
2012,06,05,02,52,9.40
2012,06,05,02,53,9.40
2012,06,05,02,54,9.40
2012,06,05,02,55,9.40
2012,06,05,02,56,9.50
2012,06,05,02,57,9.50
2012,06,05,02,58,9.50
2012,06,05,02,59,9.50
2012,06,05,03,00,9.50
2012,06,05,03,01,9.50
2012,06,05,03,02,9.50
2012,06,05,03,03,9.50
2012,06,05,03,04,9.50
2012,06,05,03,05,9.50
2012,06,05,03,06,9.50
2012,06,05,03,07,9.50
2012,06,05,03,08,9.50
2012,06,05,03,09,9.50
2012,06,05,03,10,9.50
2012,06,05,03,11,9.50
2012,06,05,03,12,9.50
2012,06,05,03,13,9.50
2012,06,05,03,14,9.50
2012,06,05,03,15,9.50
2012,06,05,03,16,9.50
2012,06,05,03,17,9.40
2012,06,05,03,18,9.40
2012,06,05,03,19,9.40
2012,06,05,03,20,9.40
2012,06,05,03,21,9.40
2012,06,05,03,22,9.40
2012,06,05,03,23,9.40
2012,06,05,03,24,9.40
2012,06,05,03,25,9.40
2012,06,05,03,26,9.40
2012,06,05,03,27,9.40
2012,06,05,03,28,9.40
2012,06,05,03,29,9.40
2012,06,05,03,30,9.40
2012,06,05,03,31,9.40
2012,06,05,03,32,9.40
2012,06,05,03,33,9.40
2012,06,05,03,34,9.40
2012,06,05,03,35,9.30
2012,06,05,03,36,9.30
2012,06,05,03,37,9.30
2012,06,05,03,38,9.30
2012,06,05,03,39,9.30
2012,06,05,03,40,9.30
2012,06,05,03,41,9.30
2012,06,05,03,42,9.30
2012,06,05,03,43,9.30
2012,06,05,03,44,9.30
2012,06,05,03,45,9.30
2012,06,05,03,46,9.30
2012,06,05,03,47,9.30
2012,06,05,03,48,9.30
2012,06,05,03,49,9.30
2012,06,05,03,50,9.30
2012,06,05,03,51,9.30
2012,06,05,03,52,9.30
2012,06,05,03,53,9.20
2012,06,05,03,54,9.20
2012,06,05,03,55,9.20
2012,06,05,03,56,9.20
2012,06,05,03,57,9.20
2012,06,05,03,58,9.20
2012,06,05,03,59,9.10
2012,06,05,04,00,9.10
2012,06,05,04,01,9.10
2012,06,05,04,02,9.10
2012,06,05,04,03,9.00
2012,06,05,04,04,9.00
2012,06,05,04,05,9.00
2012,06,05,04,06,8.90
2012,06,05,04,07,8.90
2012,06,05,04,08,8.90
2012,06,05,04,09,8.90
2012,06,05,04,10,8.80
2012,06,05,04,11,8.80
2012,06,05,04,12,8.80
2012,06,05,04,13,8.80
2012,06,05,04,14,8.80
2012,06,05,04,15,8.80
2012,06,05,04,16,8.70
2012,06,05,04,17,8.70
2012,06,05,04,18,8.70
2012,06,05,04,19,8.70
2012,06,05,04,20,8.70
2012,06,05,04,21,8.70
2012,06,05,04,22,8.60
2012,06,05,04,23,8.60
2012,06,05,04,24,8.60
2012,06,05,04,25,8.60
2012,06,05,04,26,8.60
2012,06,05,04,27,8.50
2012,06,05,04,28,8.50
2012,06,05,04,29,8.50
2012,06,05,04,30,8.40
2012,06,05,04,31,8.40
2012,06,05,04,32,8.40
2012,06,05,04,33,8.40
2012,06,05,04,34,8.40
2012,06,05,04,35,8.40
2012,06,05,04,36,8.30
2012,06,05,04,37,8.30
2012,06,05,04,38,8.30
2012,06,05,04,39,8.30
2012,06,05,04,40,8.30
2012,06,05,04,41,8.30
2012,06,05,04,42,8.30
2012,06,05,04,43,8.30
2012,06,05,04,44,8.30
2012,06,05,04,45,8.30
2012,06,05,04,46,8.30
2012,06,05,04,47,8.30
2012,06,05,04,48,8.30
2012,06,05,04,49,8.30
2012,06,05,04,50,8.30
2012,06,05,04,51,8.30
2012,06,05,04,52,8.30
2012,06,05,04,53,8.30
2012,06,05,04,54,8.30
2012,06,05,04,55,8.30
2012,06,05,04,56,8.30
2012,06,05,04,57,8.30
2012,06,05,04,58,8.30
2012,06,05,04,59,8.20
2012,06,05,05,00,8.30
2012,06,05,05,01,8.20
2012,06,05,05,02,8.20
2012,06,05,05,03,8.20
2012,06,05,05,04,8.20
2012,06,05,05,05,8.20
2012,06,05,05,06,8.20
2012,06,05,05,07,8.20
2012,06,05,05,08,8.20
2012,06,05,05,09,8.20
2012,06,05,05,10,8.20
2012,06,05,05,11,8.20
2012,06,05,05,12,8.20
2012,06,05,05,13,8.20
2012,06,05,05,14,8.20
2012,06,05,05,15,8.20
2012,06,05,05,16,8.20
2012,06,05,05,17,8.20
2012,06,05,05,18,8.20
2012,06,05,05,19,8.20
2012,06,05,05,20,8.20
2012,06,05,05,21,8.20
2012,06,05,05,22,8.20
2012,06,05,05,23,8.20
2012,06,05,05,24,8.20
2012,06,05,05,25,8.20
2012,06,05,05,26,8.20
2012,06,05,05,27,8.20
2012,06,05,05,28,8.20
2012,06,05,05,29,8.20
2012,06,05,05,30,8.20
2012,06,05,05,31,8.20
2012,06,05,05,32,8.20
2012,06,05,05,33,8.20
2012,06,05,05,34,8.20
2012,06,05,05,35,8.20
2012,06,05,05,36,8.20
2012,06,05,05,37,8.20
2012,06,05,05,38,8.20
2012,06,05,05,39,8.20
2012,06,05,05,40,8.20
2012,06,05,05,41,8.20
2012,06,05,05,42,8.20
2012,06,05,05,43,8.20
2012,06,05,05,44,8.20
2012,06,05,05,45,8.20
2012,06,05,05,46,8.20
2012,06,05,05,47,8.20
2012,06,05,05,48,8.20
2012,06,05,05,49,8.20
2012,06,05,05,50,8.20
2012,06,05,05,51,8.20
2012,06,05,05,52,8.20
2012,06,05,05,53,8.20
2012,06,05,05,54,8.20
2012,06,05,05,55,8.20
2012,06,05,05,56,8.20
2012,06,05,05,57,8.30
2012,06,05,05,58,8.30
2012,06,05,05,59,8.30
2012,06,05,06,00,8.30
2012,06,05,06,01,8.30
2012,06,05,06,02,8.30
2012,06,05,06,03,8.30
2012,06,05,06,04,8.30
2012,06,05,06,05,8.30
2012,06,05,06,06,8.30
2012,06,05,06,07,8.30
2012,06,05,06,08,8.30
2012,06,05,06,09,8.30
2012,06,05,06,10,8.30
2012,06,05,06,11,8.40
2012,06,05,06,12,8.40
2012,06,05,06,13,8.40
2012,06,05,06,14,8.40
2012,06,05,06,15,8.40
2012,06,05,06,16,8.40
2012,06,05,06,17,8.40
2012,06,05,06,18,8.40
2012,06,05,06,19,8.40
2012,06,05,06,20,8.40
2012,06,05,06,21,8.40
2012,06,05,06,22,8.40
2012,06,05,06,23,8.40
2012,06,05,06,24,8.40
2012,06,05,06,25,8.40
2012,06,05,06,26,8.40
2012,06,05,06,27,8.50
2012,06,05,06,28,8.50
2012,06,05,06,29,8.50
2012,06,05,06,30,8.50
2012,06,05,06,31,8.50
2012,06,05,06,32,8.50
2012,06,05,06,33,8.60
2012,06,05,06,34,8.60
2012,06,05,06,35,8.60
2012,06,05,06,36,8.60
2012,06,05,06,37,8.60
2012,06,05,06,38,8.60
2012,06,05,06,39,8.70
2012,06,05,06,40,8.70
2012,06,05,06,41,8.70
2012,06,05,06,42,8.70
2012,06,05,06,43,8.80
2012,06,05,06,44,8.80
2012,06,05,06,45,8.80
2012,06,05,06,46,8.90
2012,06,05,06,47,8.90
2012,06,05,06,48,8.90
2012,06,05,06,49,9.00
2012,06,05,06,50,9.00
2012,06,05,06,51,9.00
2012,06,05,06,52,9.10
2012,06,05,06,53,9.10
2012,06,05,06,54,9.10
2012,06,05,06,55,9.10
2012,06,05,06,56,9.10
2012,06,05,06,57,9.20
2012,06,05,06,58,9.20
2012,06,05,06,59,9.20
2012,06,05,07,00,9.20
2012,06,05,07,01,9.20
2012,06,05,07,02,9.20
2012,06,05,07,03,9.30
2012,06,05,07,04,9.30
2012,06,05,07,05,9.30
2012,06,05,07,06,9.30
2012,06,05,07,07,9.30
2012,06,05,07,08,9.30
2012,06,05,07,09,9.40
2012,06,05,07,10,9.40
2012,06,05,07,11,9.40
2012,06,05,07,12,9.40
2012,06,05,07,13,9.40
2012,06,05,07,14,9.40
2012,06,05,07,15,9.40
2012,06,05,07,16,9.40
2012,06,05,07,17,9.50
2012,06,05,07,18,9.50
2012,06,05,07,19,9.50
2012,06,05,07,20,9.50
2012,06,05,07,21,9.60
2012,06,05,07,22,9.60
2012,06,05,07,23,9.60
2012,06,05,07,24,9.60
2012,06,05,07,25,9.60
2012,06,05,07,26,9.60
2012,06,05,07,27,9.70
2012,06,05,07,28,9.70
2012,06,05,07,29,9.70
2012,06,05,07,30,9.70
2012,06,05,07,31,9.70
2012,06,05,07,32,9.80
2012,06,05,07,33,9.80
2012,06,05,07,34,9.80
2012,06,05,07,35,9.80
2012,06,05,07,36,9.80
2012,06,05,07,37,9.80
2012,06,05,07,38,9.90
2012,06,05,07,39,9.90
2012,06,05,07,40,9.90
2012,06,05,07,41,9.90
2012,06,05,07,42,9.90
2012,06,05,07,43,10.00
2012,06,05,07,44,10.00
2012,06,05,07,45,10.00
2012,06,05,07,46,10.10
2012,06,05,07,47,10.10
2012,06,05,07,48,10.10
2012,06,05,07,49,10.10
2012,06,05,07,50,10.20
2012,06,05,07,51,10.20
2012,06,05,07,52,10.20
2012,06,05,07,53,10.20
2012,06,05,07,54,10.30
2012,06,05,07,55,10.30
2012,06,05,07,56,10.30
2012,06,05,07,57,10.40
2012,06,05,07,58,10.40
2012,06,05,07,59,10.40
2012,06,05,08,00,10.50
2012,06,05,08,01,10.50
2012,06,05,08,02,10.50
2012,06,05,08,03,10.60
2012,06,05,08,04,10.60
2012,06,05,08,05,10.60
2012,06,05,08,06,10.70
2012,06,05,08,07,10.70
2012,06,05,08,08,10.70
2012,06,05,08,09,10.70
2012,06,05,08,10,10.80
2012,06,05,08,11,10.80
2012,06,05,08,12,10.80
2012,06,05,08,13,10.80
2012,06,05,08,14,10.80
2012,06,05,08,15,10.90
2012,06,05,08,16,10.90
2012,06,05,08,17,10.90
2012,06,05,08,18,10.90
2012,06,05,08,19,11.00
2012,06,05,08,20,11.00
2012,06,05,08,21,11.00
2012,06,05,08,22,11.10
2012,06,05,08,23,11.10
2012,06,05,08,24,11.10
2012,06,05,08,25,11.10
2012,06,05,08,26,11.20
2012,06,05,08,27,11.20
2012,06,05,08,28,11.20
2012,06,05,08,29,11.20
2012,06,05,08,30,11.20
2012,06,05,08,31,11.20
2012,06,05,08,32,11.30
2012,06,05,08,33,11.30
2012,06,05,08,34,11.30
2012,06,05,08,35,11.30
2012,06,05,08,36,11.30
2012,06,05,08,37,11.30
2012,06,05,08,38,11.40
2012,06,05,08,39,11.40
2012,06,05,08,40,11.40
2012,06,05,08,41,11.40
2012,06,05,08,42,11.50
2012,06,05,08,43,11.50
2012,06,05,08,44,11.50
2012,06,05,08,45,11.60
2012,06,05,08,46,11.60
2012,06,05,08,47,11.60
2012,06,05,08,48,11.70
2012,06,05,08,49,11.70
2012,06,05,08,50,11.70
2012,06,05,08,51,11.70
2012,06,05,08,52,11.80
2012,06,05,08,53,11.80
2012,06,05,08,54,11.80
2012,06,05,08,55,11.80
2012,06,05,08,56,11.90
2012,06,05,08,57,11.90
2012,06,05,08,58,11.90
2012,06,05,08,59,11.90
2012,06,05,09,00,11.90
2012,06,05,09,01,12.00
2012,06,05,09,02,12.00
2012,06,05,09,03,12.00
2012,06,05,09,04,12.10
2012,06,05,09,05,12.10
2012,06,05,09,06,12.10
2012,06,05,09,07,12.10
2012,06,05,09,08,12.10
2012,06,05,09,09,12.20
2012,06,05,09,10,12.20
2012,06,05,09,11,12.20
2012,06,05,09,12,12.20
2012,06,05,09,13,12.20
2012,06,05,09,14,12.30
2012,06,05,09,15,12.30
2012,06,05,09,16,12.30
2012,06,05,09,17,12.30
2012,06,05,09,18,12.30
2012,06,05,09,19,12.30
2012,06,05,09,20,12.30
2012,06,05,09,21,12.30
2012,06,05,09,22,12.40
2012,06,05,09,23,12.40
2012,06,05,09,24,12.40
2012,06,05,09,25,12.40
2012,06,05,09,26,12.30
2012,06,05,09,27,12.30
2012,06,05,09,28,12.30
2012,06,05,09,29,12.30
2012,06,05,09,30,12.30
2012,06,05,09,31,12.30
2012,06,05,09,32,12.40
2012,06,05,09,33,12.40
2012,06,05,09,34,12.40
2012,06,05,09,35,12.40
2012,06,05,09,36,12.40
2012,06,05,09,37,12.40
2012,06,05,09,38,12.40
2012,06,05,09,39,12.40
2012,06,05,09,40,12.40
2012,06,05,09,41,12.40
2012,06,05,09,42,12.40
2012,06,05,09,43,12.40
2012,06,05,09,44,12.40
2012,06,05,09,45,12.50
2012,06,05,09,46,12.50
2012,06,05,09,47,12.50
2012,06,05,09,48,12.50
2012,06,05,09,49,12.50
2012,06,05,09,50,12.50
2012,06,05,09,51,12.60
2012,06,05,09,52,12.60
2012,06,05,09,53,12.60
2012,06,05,09,54,12.60
2012,06,05,09,55,12.60
2012,06,05,09,56,12.60
2012,06,05,09,57,12.70
2012,06,05,09,58,12.70
2012,06,05,09,59,12.70
2012,06,05,10,00,12.70
2012,06,05,10,01,12.70
2012,06,05,10,02,12.70
2012,06,05,10,03,12.70
2012,06,05,10,04,12.70
2012,06,05,10,05,12.70
2012,06,05,10,06,12.70
2012,06,05,10,07,12.80
2012,06,05,10,08,12.80
2012,06,05,10,09,12.80
2012,06,05,10,10,12.80
2012,06,05,10,11,12.80
2012,06,05,10,12,12.90
2012,06,05,10,13,12.90
2012,06,05,10,14,12.90
2012,06,05,10,15,12.90
2012,06,05,10,16,12.90
2012,06,05,10,17,13.00
2012,06,05,10,18,13.00
2012,06,05,10,19,13.00
2012,06,05,10,20,13.00
2012,06,05,10,21,13.00
2012,06,05,10,22,13.00
2012,06,05,10,23,13.00
2012,06,05,10,24,13.00
2012,06,05,10,25,13.00
2012,06,05,10,26,13.10
2012,06,05,10,27,13.10
2012,06,05,10,28,13.10
2012,06,05,10,29,13.10
2012,06,05,10,30,13.10
2012,06,05,10,31,13.10
2012,06,05,10,32,13.10
2012,06,05,10,33,13.10
2012,06,05,10,34,13.20
2012,06,05,10,35,13.20
2012,06,05,10,36,13.20
2012,06,05,10,37,13.20
2012,06,05,10,38,13.30
2012,06,05,10,39,13.30
2012,06,05,10,40,13.30
2012,06,05,10,41,13.30
2012,06,05,10,42,13.30
2012,06,05,10,43,13.30
2012,06,05,10,44,13.30
2012,06,05,10,45,13.30
2012,06,05,10,46,13.20
2012,06,05,10,47,13.20
2012,06,05,10,48,13.20
2012,06,05,10,49,13.10
2012,06,05,10,50,13.10
2012,06,05,10,51,13.10
2012,06,05,10,52,13.10
2012,06,05,10,53,13.10
2012,06,05,10,54,13.10
2012,06,05,10,55,13.10
2012,06,05,10,56,13.20
2012,06,05,10,57,13.20
2012,06,05,10,58,13.20
2012,06,05,10,59,13.20
2012,06,05,11,00,13.30
2012,06,05,11,01,13.30
2012,06,05,11,02,13.30
2012,06,05,11,03,13.30
2012,06,05,11,04,13.40
2012,06,05,11,05,13.40
2012,06,05,11,06,13.40
2012,06,05,11,07,13.40
2012,06,05,11,08,13.40
2012,06,05,11,09,13.40
2012,06,05,11,10,13.40
2012,06,05,11,11,13.40
2012,06,05,11,12,13.40
2012,06,05,11,13,13.30
2012,06,05,11,14,13.30
2012,06,05,11,15,13.30
2012,06,05,11,16,13.30
2012,06,05,11,17,13.30
2012,06,05,11,18,13.30
2012,06,05,11,19,13.30
2012,06,05,11,20,13.30
2012,06,05,11,21,13.30
2012,06,05,11,22,13.40
2012,06,05,11,23,13.40
2012,06,05,11,24,13.40
2012,06,05,11,25,13.40
2012,06,05,11,26,13.40
2012,06,05,11,27,13.40
2012,06,05,11,28,13.40
2012,06,05,11,29,13.40
2012,06,05,11,30,13.40
2012,06,05,11,31,13.40
2012,06,05,11,32,13.40
2012,06,05,11,33,13.40
2012,06,05,11,34,13.40
2012,06,05,11,35,13.40
2012,06,05,11,36,13.40
2012,06,05,11,37,13.40
2012,06,05,11,38,13.40
2012,06,05,11,39,13.40
2012,06,05,11,40,13.40
2012,06,05,11,41,13.50
2012,06,05,11,42,13.50
2012,06,05,11,43,13.50
2012,06,05,11,44,13.60
2012,06,05,11,45,13.60
2012,06,05,11,46,13.60
2012,06,05,11,47,13.60
2012,06,05,11,48,13.60
2012,06,05,11,49,13.60
2012,06,05,11,50,13.60
2012,06,05,11,51,13.60
2012,06,05,11,52,13.60
2012,06,05,11,53,13.70
2012,06,05,11,54,13.70
2012,06,05,11,55,13.70
2012,06,05,11,56,13.80
2012,06,05,11,57,13.80
2012,06,05,11,58,13.80
2012,06,05,11,59,13.90
2012,06,05,12,00,13.90
2012,06,05,12,01,14.00
2012,06,05,12,02,14.00
2012,06,05,12,03,14.10
2012,06,05,12,04,14.10
2012,06,05,12,05,14.20
2012,06,05,12,06,14.20
2012,06,05,12,07,14.20
2012,06,05,12,08,14.30
2012,06,05,12,09,14.40
2012,06,05,12,10,14.40
2012,06,05,12,11,14.50
2012,06,05,12,12,14.50
2012,06,05,12,13,14.60
2012,06,05,12,14,14.70
2012,06,05,12,15,14.70
2012,06,05,12,16,14.80
2012,06,05,12,17,14.90
2012,06,05,12,18,14.90
2012,06,05,12,19,15.00
2012,06,05,12,20,15.10
2012,06,05,12,21,15.20
2012,06,05,12,22,15.20
2012,06,05,12,23,15.30
2012,06,05,12,24,15.40
2012,06,05,12,25,15.40
2012,06,05,12,26,15.50
2012,06,05,12,27,15.50
2012,06,05,12,28,15.60
2012,06,05,12,29,15.60
2012,06,05,12,30,15.60
2012,06,05,12,31,15.60
2012,06,05,12,32,15.70
2012,06,05,12,33,15.80
2012,06,05,12,34,15.80
2012,06,05,12,35,15.90
2012,06,05,12,36,15.90
2012,06,05,12,37,16.00
2012,06,05,12,38,16.10
2012,06,05,12,39,16.20
2012,06,05,12,40,16.20
2012,06,05,12,41,16.30
2012,06,05,12,42,16.30
2012,06,05,12,43,16.30
2012,06,05,12,44,16.20
2012,06,05,12,45,16.10
2012,06,05,12,46,16.00
2012,06,05,12,47,16.00
2012,06,05,12,48,15.90
2012,06,05,12,49,15.80
2012,06,05,12,50,15.80
2012,06,05,12,51,15.80
2012,06,05,12,52,15.80
2012,06,05,12,53,15.80
2012,06,05,12,54,15.80
2012,06,05,12,55,15.80
2012,06,05,12,56,15.80
2012,06,05,12,57,15.80
2012,06,05,12,58,15.80
2012,06,05,12,59,15.80
2012,06,05,13,00,15.80
2012,06,05,13,01,15.80
2012,06,05,13,02,15.80
2012,06,05,13,03,15.80
2012,06,05,13,04,15.80
2012,06,05,13,05,15.70
2012,06,05,13,06,15.70
2012,06,05,13,07,15.70
2012,06,05,13,08,15.60
2012,06,05,13,09,15.60
2012,06,05,13,10,15.60
2012,06,05,13,11,15.50
2012,06,05,13,12,15.50
2012,06,05,13,13,15.40
2012,06,05,13,14,15.30
2012,06,05,13,15,15.30
2012,06,05,13,16,15.20
2012,06,05,13,17,15.20
2012,06,05,13,18,15.20
2012,06,05,13,19,15.20
2012,06,05,13,20,15.10
2012,06,05,13,21,15.10
2012,06,05,13,22,15.00
2012,06,05,13,23,15.00
2012,06,05,13,24,14.90
2012,06,05,13,25,14.90
2012,06,05,13,26,14.90
2012,06,05,13,27,14.90
2012,06,05,13,28,14.80
2012,06,05,13,29,14.80
2012,06,05,13,30,14.80
2012,06,05,13,31,14.90
2012,06,05,13,32,14.80
2012,06,05,13,33,14.80
2012,06,05,13,34,14.80
2012,06,05,13,35,14.80
2012,06,05,13,36,14.80
2012,06,05,13,37,14.80
2012,06,05,13,38,14.80
2012,06,05,13,39,14.80
2012,06,05,13,40,14.80
2012,06,05,13,41,14.80
2012,06,05,13,42,14.80
2012,06,05,13,43,14.80
2012,06,05,13,44,14.80
2012,06,05,13,45,14.80
2012,06,05,13,46,14.70
2012,06,05,13,47,14.70
2012,06,05,13,48,14.70
2012,06,05,13,49,14.60
2012,06,05,13,50,14.60
2012,06,05,13,51,14.60
2012,06,05,13,52,14.50
2012,06,05,13,53,14.50
2012,06,05,13,54,14.40
2012,06,05,13,55,14.40
2012,06,05,13,56,14.30
2012,06,05,13,57,14.30
2012,06,05,13,58,14.20
2012,06,05,13,59,14.10
2012,06,05,14,00,14.00
2012,06,05,14,01,13.90
2012,06,05,14,02,13.80
2012,06,05,14,03,13.70
2012,06,05,14,04,13.60
2012,06,05,14,05,13.50
2012,06,05,14,06,13.40
2012,06,05,14,07,13.40
2012,06,05,14,08,13.30
2012,06,05,14,09,13.30
2012,06,05,14,10,13.20
2012,06,05,14,11,13.10
2012,06,05,14,12,13.00
2012,06,05,14,13,13.00
2012,06,05,14,14,12.90
2012,06,05,14,15,12.90
2012,06,05,14,16,12.80
2012,06,05,14,17,12.80
2012,06,05,14,18,12.90
2012,06,05,14,19,12.90
2012,06,05,14,20,12.90
2012,06,05,14,21,12.90
2012,06,05,14,22,13.00
2012,06,05,14,23,13.00
2012,06,05,14,24,13.00
2012,06,05,14,25,13.00
2012,06,05,14,26,13.00
2012,06,05,14,27,13.00
2012,06,05,14,28,12.90
2012,06,05,14,29,12.90
2012,06,05,14,30,12.80
2012,06,05,14,31,12.70
2012,06,05,14,32,12.70
2012,06,05,14,33,12.70
2012,06,05,14,34,12.70
2012,06,05,14,35,12.80
2012,06,05,14,36,12.80
2012,06,05,14,37,12.90
2012,06,05,14,38,12.90
2012,06,05,14,39,12.90
2012,06,05,14,40,13.00
2012,06,05,14,41,13.00
2012,06,05,14,42,13.10
2012,06,05,14,43,13.10
2012,06,05,14,44,13.20
2012,06,05,14,45,13.20
2012,06,05,14,46,13.30
2012,06,05,14,47,13.30
2012,06,05,14,48,13.30
2012,06,05,14,49,13.30
2012,06,05,14,50,13.40
2012,06,05,14,51,13.40
2012,06,05,14,52,13.40
2012,06,05,14,53,13.40
2012,06,05,14,54,13.50
2012,06,05,14,55,13.50
2012,06,05,14,56,13.50
2012,06,05,14,57,13.60
2012,06,05,14,58,13.60
2012,06,05,14,59,13.60
2012,06,05,15,00,13.60
2012,06,05,15,01,13.60
2012,06,05,15,02,13.60
2012,06,05,15,03,13.70
2012,06,05,15,04,13.70
2012,06,05,15,05,13.80
2012,06,05,15,06,13.80
2012,06,05,15,07,13.90
2012,06,05,15,08,13.90
2012,06,05,15,09,14.00
2012,06,05,15,10,14.00
2012,06,05,15,11,14.10
2012,06,05,15,12,14.10
2012,06,05,15,13,14.10
2012,06,05,15,14,14.10
2012,06,05,15,15,14.10
2012,06,05,15,16,14.20
2012,06,05,15,17,14.10
2012,06,05,15,18,14.10
2012,06,05,15,19,14.10
2012,06,05,15,20,14.10
2012,06,05,15,21,14.10
2012,06,05,15,22,14.10
2012,06,05,15,23,14.10
2012,06,05,15,24,14.10
2012,06,05,15,25,14.10
2012,06,05,15,26,14.10
2012,06,05,15,27,14.10
2012,06,05,15,28,14.10
2012,06,05,15,29,14.20
2012,06,05,15,30,14.20
2012,06,05,15,31,14.20
2012,06,05,15,32,14.20
2012,06,05,15,33,14.20
2012,06,05,15,34,14.20
2012,06,05,15,35,14.20
2012,06,05,15,36,14.20
2012,06,05,15,37,14.20
2012,06,05,15,38,14.30
2012,06,05,15,39,14.30
2012,06,05,15,40,14.30
2012,06,05,15,41,14.30
2012,06,05,15,42,14.40
2012,06,05,15,43,14.40
2012,06,05,15,44,14.40
2012,06,05,15,45,14.40
2012,06,05,15,46,14.40
2012,06,05,15,47,14.40
2012,06,05,15,48,14.40
2012,06,05,15,49,14.40
2012,06,05,15,50,14.40
2012,06,05,15,51,14.40
2012,06,05,15,52,14.40
2012,06,05,15,53,14.40
2012,06,05,15,54,14.30
2012,06,05,15,55,14.30
2012,06,05,15,56,14.30
2012,06,05,15,57,14.30
2012,06,05,15,58,14.30
2012,06,05,15,59,14.30
2012,06,05,16,00,14.30
2012,06,05,16,01,14.30
2012,06,05,16,02,14.30
2012,06,05,16,03,14.40
2012,06,05,16,04,14.40
2012,06,05,16,05,14.40
2012,06,05,16,06,14.40
2012,06,05,16,07,14.40
2012,06,05,16,08,14.30
2012,06,05,16,09,14.30
2012,06,05,16,10,14.30
2012,06,05,16,11,14.30
2012,06,05,16,12,14.30
2012,06,05,16,13,14.40
2012,06,05,16,14,14.40
2012,06,05,16,15,14.40
2012,06,05,16,16,14.40
2012,06,05,16,17,14.40
2012,06,05,16,18,14.50
2012,06,05,16,19,14.50
2012,06,05,16,20,14.50
2012,06,05,16,21,14.50
2012,06,05,16,22,14.50
2012,06,05,16,23,14.40
2012,06,05,16,24,14.40
2012,06,05,16,25,14.40
2012,06,05,16,26,14.40
2012,06,05,16,27,14.40
2012,06,05,16,28,14.40
2012,06,05,16,29,14.30
2012,06,05,16,30,14.30
2012,06,05,16,31,14.30
2012,06,05,16,32,14.30
2012,06,05,16,33,14.30
2012,06,05,16,34,14.30
2012,06,05,16,35,14.30
2012,06,05,16,36,14.30
2012,06,05,16,37,14.20
2012,06,05,16,38,14.20
2012,06,05,16,39,14.20
2012,06,05,16,40,14.20
2012,06,05,16,41,14.20
2012,06,05,16,42,14.10
2012,06,05,16,43,14.10
2012,06,05,16,44,14.10
2012,06,05,16,45,14.10
2012,06,05,16,46,14.10
2012,06,05,16,47,14.10
2012,06,05,16,48,14.10
2012,06,05,16,49,14.10
2012,06,05,16,50,14.10
2012,06,05,16,51,14.10
2012,06,05,16,52,14.10
2012,06,05,16,53,14.00
2012,06,05,16,54,14.00
2012,06,05,16,55,14.00
2012,06,05,16,56,14.00
2012,06,05,16,57,14.00
2012,06,05,16,58,14.00
2012,06,05,16,59,14.00
2012,06,05,17,00,14.00
2012,06,05,17,01,14.00
2012,06,05,17,02,14.00
2012,06,05,17,03,14.00
2012,06,05,17,04,13.90
2012,06,05,17,05,13.90
2012,06,05,17,06,13.90
2012,06,05,17,07,13.90
2012,06,05,17,08,13.90
2012,06,05,17,09,13.90
2012,06,05,17,10,13.90
2012,06,05,17,11,13.90
2012,06,05,17,12,13.90
2012,06,05,17,13,13.90
2012,06,05,17,14,13.90
2012,06,05,17,15,13.90
2012,06,05,17,16,13.90
2012,06,05,17,17,13.90
2012,06,05,17,18,13.90
2012,06,05,17,19,13.90
2012,06,05,17,20,13.90
2012,06,05,17,21,14.00
2012,06,05,17,22,14.00
2012,06,05,17,23,14.00
2012,06,05,17,24,14.10
2012,06,05,17,25,14.10
2012,06,05,17,26,14.10
2012,06,05,17,27,14.20
2012,06,05,17,28,14.20
2012,06,05,17,29,14.30
2012,06,05,17,30,14.30
2012,06,05,17,31,14.30
2012,06,05,17,32,14.40
2012,06,05,17,33,14.50
2012,06,05,17,34,14.60
2012,06,05,17,35,14.60
2012,06,05,17,36,14.70
2012,06,05,17,37,14.70
2012,06,05,17,38,14.70
2012,06,05,17,39,14.70